Location: Keppel Henge
(44.7900°N, 80.9447°W)
Time: 08:04:08
(UTC-04:00)

Envisat - Pass Details

Date: 16 October 2017
Orbit: 764 x 766 km, 98.2° (Epoch: 22 October)

Event Time Altitude Azimuth Distance (km) Brightness Sun altitude
Exits shadow 22:26:29 18° 285° (WNW) 1,828 5.4 -40.2°
Drops below altitude 10° 22:28:59 10° 314° (NW) 2,309 6.1 -40.5°
Sets 22:31:59 0° 332° (NNW) 3,241 6.9 -41.0°
